Location: Mentone
(34.5413°N, 85.5351°W)
Time: 03:05:37
(UTC-05:00)

Vanguard 2 Rocket - Visible Passes

Search period start: 21 September 2014 00:00
Search period end: 01 October 2014 00:00
Orbit: 553 x 3336 km, 32.9° (Epoch: 20 September)

Date Brightness Start Highest point End Pass type
(mag) Time Alt. Az. Time Alt. Az. Time Alt. Az.
22 Sep 9.7 19:13:28 10° W 19:20:56 19° SW 19:26:22 10° S visible
24 Sep 10.2 19:35:01 10° WSW 19:36:21 10° SW 19:37:37 10° SW visible
27 Sep 10.5 18:49:15 10° WSW 18:53:39 12° SW 18:57:26 10° SW visible
